CZ-2D DEB

Satellite information

Favourite Embed

Satellite Type and Status

DEBRISIN ORBIT

Key statistics

Satellite CZ-2D DEB at a glance.

Uptime

5087

Days in orbit

Revolutions

≈ 14.2

Per day

Orbit

SSO

Sun Synchronous Orbit

Inclination

98.9

Latest

Satellite identification and parameters

Extended collection of information and parameters for CZ-2D DEB.

Object identification

Identified? True

Debris? True

Object name: CZ-2D DEB

International designator: 2011-068H

Object number (NORAD): 38180

Object ID (CCSDS): 38180

Country: PEOPLES REPUBLIC OF CHINA (PRC)

Current information (Y/N): Y

RCS size: SMALL

Orbital parameters

Period: 101.128 minutes

Inclination: 98.8996 deg

SMA: 7190.181 km

Apoapsis: 912.587 km

Periapsis: 711.505 km

RAAN: 312.824 deg

Eccentricy: 0.0139831

Argument of periapsis: 37.8768 deg

Mean anomaly: 18.1601 deg

Mean motion: 14.23944285 rev/day

Mean motion (dot): 0.00001999 rev/day2

B* drag term: 0.00080577712 1/REarth

Two-line elements (TLE)

Creation date: Oct. 21, 2025, 6:24 p.m.

Reference frame: TEME

Reference center: EARTH

Epoch: Oct. 21, 2025, 6:48 a.m. UTC

TLE line 0: 0 CZ-2D DEB

TLE line 1: 1 38180U 11068H 25294.28383568 .00001999 00000-0 80578-3 0 9990

TLE line 2: 2 38180 98.8996 312.8240 0139831 37.8768 18.1601 14.23944285717234

Live tracking on map

Real-time ground track for satellite CZ-2D DEB.

In-orbit conjunctions

A list of the most updated potential collisions computed for object CZ-2D DEB.

Target Orbit TCA Probability of collision Miss distance Type
COSMOS 540 LEO 2024-10-29 03:56:05 0.0001133675 373.0 (m) PAYLOAD
COSMOS 1275 DEB LEO 2024-09-13 23:58:48 0.0001348016 162.0 (m) DEBRIS
COSMOS 1110 LEO 2024-07-05 11:32:20 0.0001135649 498.0 (m) PAYLOAD

Associated space launch

CZ-2D DEB was lifted into orbit during the mission ‘Long March 2D | Shiyan Weixing 4 & Chuang Xin 1C’, on board a Long March 2D space rocket.

The launch took place on Nov. 20, 2011, 12:15 a.m. from Launch Area 4 (SLS-2 / 603).

For more information about the launch, click the button.

Launch to space Long March 2D | Shiyan Weixing 4 & Chuang Xin 1C
Long March 2D | Shiyan Weixing 4 & Chuang Xin 1C

Agency: N/A

Status: Launch Successful

Launch date: Nov. 20, 2011, 12:15 a.m. UTC

Rocket: Long March 2D

Launch pad: Launch Area 4 (SLS-2 / 603)

Location: Jiuquan Satellite Launch Center, People's Republic of China

...

Latest news about this satellite

There are no fresh news available about this satellite. Check back as we update our databases every day.


Newsletter sign-up

Weekly statistics, charts and insights to help you stay on top of the space industry.